• In Moldova, Republic
  • List of Countries
  • For 7 days
  • Water Temperature
  • Satellite Maps
  • Weather Map
  • Weather Widgets
  • user-avatar
    Login

    Hourly Weather Quito

    Today, 23 July, Sunday

    Time Temperature Precipitation Wind Pressure Humidity
    00:00 +16°C° 0 mm 1 mps 623 mmHg 30%
    01:00 +16°C° 0 mm 1 mps 623 mmHg 30%
    02:00 +15°C° 0 mm 1 mps 622 mmHg 32%
    03:00 +14°C° 0 mm 1 mps 622 mmHg 33%
    04:00 +13°C° 0 mm 1 mps 622 mmHg 35%
    05:00 +13°C° 0 mm 1 mps 622 mmHg 35%
    06:00 +13°C° 0 mm 1 mps 623 mmHg 36%
    07:00 +13°C° 0 mm 1 mps 623 mmHg 36%
    08:00 +18°C° 0 mm 1 mps 624 mmHg 31%
    09:00 +22°C° 0 mm 1 mps 625 mmHg 25%
    10:00 +26°C° 0 mm 1 mps 627 mmHg 20%
    11:00 +27°C° 0 mm 1 mps 627 mmHg 18%
    12:00 +29°C° 0 mm 1 mps 626 mmHg 16%
    13:00 +30°C° 0 mm 1 mps 626 mmHg 15%
    14:00 +30°C° 0 mm 1 mps 626 mmHg 15%
    15:00 +30°C° 0 mm 1 mps 625 mmHg 15%
    16:00 +29°C° 0 mm 1 mps 625 mmHg 15%
    17:00 +26°C° 0 mm 1 mps 624 mmHg 17%
    18:00 +24°C° 0 mm 1 mps 624 mmHg 20%
    19:00 +21°C° 0 mm 1 mps 623 mmHg 23%
    20:00 +20°C° 0 mm 1 mps 623 mmHg 24%
    21:00 +20°C° 0 mm 1 mps 624 mmHg 24%
    22:00 +19°C° 0 mm 1 mps 624 mmHg 25%
    23:00 +19°C° 0 mm 1 mps 624 mmHg 26%

    Tomorrow, 24 July, Monday

    Time Temperature Precipitation Wind Pressure Humidity
    00:00 +18°C° 0 mm 1 mps 624 mmHg 26%
    01:00 +16°C° 0 mm 1 mps 623 mmHg 27%
    02:00 +16°C° 0 mm 1 mps 623 mmHg 28%
    03:00 +15°C° 0 mm 1 mps 623 mmHg 30%
    04:00 +14°C° 0 mm 1 mps 622 mmHg 31%
    05:00 +14°C° 0 mm 1 mps 623 mmHg 32%
    06:00 +14°C° 0 mm 1 mps 623 mmHg 33%
    07:00 +14°C° 0 mm 1 mps 624 mmHg 34%
    08:00 +17°C° 0 mm 2 mps 625 mmHg 29%
    09:00 +21°C° 0 mm 2 mps 626 mmHg 24%
    10:00 +25°C° 0 mm 2 mps 627 mmHg 19%
    11:00 +27°C° 0 mm 2 mps 627 mmHg 17%
    12:00 +29°C° 0 mm 2 mps 627 mmHg 15%
    13:00 +31°C° 0 mm 2 mps 627 mmHg 14%
    14:00 +30°C° 0 mm 2 mps 626 mmHg 13%
    15:00 +30°C° 0 mm 1 mps 625 mmHg 13%
    16:00 +29°C° 0 mm 1 mps 625 mmHg 13%
    17:00 +27°C° 0 mm 1 mps 624 mmHg 16%
    18:00 +24°C° 0 mm 1 mps 624 mmHg 18%
    19:00 +22°C° 0 mm 1 mps 624 mmHg 21%
    20:00 +21°C° 0 mm 1 mps 624 mmHg 21%
    21:00 +20°C° 0 mm 1 mps 624 mmHg 22%
    22:00 +19°C° 0 mm 1 mps 624 mmHg 23%
    23:00 +19°C° 0 mm 1 mps 624 mmHg 24%

    Day after tomorrow, 25 July, Tuesday

    Time Temperature Precipitation Wind Pressure Humidity
    00:00 +18°C° 0 mm 1 mps 624 mmHg 26%
    01:00 +16°C° 0 mm 1 mps 623 mmHg 27%
    02:00 +16°C° 0 mm 1 mps 623 mmHg 28%
    03:00 +15°C° 0 mm 1 mps 623 mmHg 30%
    04:00 +14°C° 0 mm 1 mps 623 mmHg 31%
    05:00 +14°C° 0 mm 1 mps 623 mmHg 32%
    06:00 +14°C° 0 mm 1 mps 623 mmHg 33%
    07:00 +14°C° 0 mm 1 mps 624 mmHg 33%
    08:00 +17°C° 0 mm 2 mps 625 mmHg 28%
    09:00 +21°C° 0 mm 3 mps 626 mmHg 23%
    10:00 +25°C° 0 mm 4 mps 627 mmHg 17%
    11:00 +27°C° 0 mm 3 mps 627 mmHg 16%
    12:00 +28°C° 0 mm 3 mps 626 mmHg 15%
    13:00 +29°C° 0 mm 3 mps 626 mmHg 14%
    14:00 +29°C° 0 mm 3 mps 625 mmHg 13%
    15:00 +29°C° 0 mm 2 mps 625 mmHg 13%
    16:00 +29°C° 0 mm 2 mps 624 mmHg 13%
    17:00 +26°C° 0 mm 1 mps 624 mmHg 16%
    18:00 +23°C° 0 mm 1 mps 623 mmHg 18%
    19:00 +19°C° 0 mm 0 mps 623 mmHg 21%
    20:00 +18°C° 0 mm 0 mps 623 mmHg 22%
    21:00 +19°C° 0 mm 1 mps 623 mmHg 23%
    22:00 +18°C° 0 mm 1 mps 624 mmHg 23%
    23:00 +18°C° 0 mm 1 mps 623 mmHg 24%

    26 July, Wednesday

    Time Temperature Precipitation Wind Pressure Humidity
    00:00 +16°C° 0 mm 1 mps 623 mmHg 25%
    01:00 +15°C° 0 mm 1 mps 623 mmHg 26%
    02:00 +15°C° 0 mm 1 mps 622 mmHg 27%
    03:00 +14°C° 0 mm 2 mps 622 mmHg 28%
    04:00 +13°C° 0 mm 2 mps 622 mmHg 29%
    05:00 +13°C° 0 mm 2 mps 622 mmHg 30%
    06:00 +13°C° 0 mm 2 mps 623 mmHg 31%
    07:00 +13°C° 0 mm 2 mps 623 mmHg 32%
    08:00 +17°C° 0 mm 2 mps 624 mmHg 28%
    09:00 +20°C° 0 mm 3 mps 625 mmHg 23%
    10:00 +25°C° 0 mm 4 mps 626 mmHg 19%
    11:00 +26°C° 0 mm 3 mps 626 mmHg 17%
    12:00 +28°C° 0 mm 3 mps 626 mmHg 15%
    13:00 +30°C° 0 mm 2 mps 625 mmHg 13%
    14:00 +29°C° 0 mm 2 mps 625 mmHg 13%
    15:00 +29°C° 0 mm 2 mps 624 mmHg 13%
    16:00 +29°C° 0 mm 2 mps 624 mmHg 12%
    17:00 +26°C° 0 mm 1 mps 623 mmHg 15%
    18:00 +24°C° 0 mm 1 mps 623 mmHg 17%
    19:00 +21°C° 0 mm 1 mps 623 mmHg 20%
    20:00 +20°C° 0 mm 1 mps 623 mmHg 20%
    21:00 +19°C° 0 mm 1 mps 623 mmHg 21%
    22:00 +19°C° 0 mm 1 mps 624 mmHg 22%
    23:00 +18°C° 0 mm 1 mps 623 mmHg 23%

    27 July, Thursday

    Time Temperature Precipitation Wind Pressure Humidity
    00:00 +16°C° 0 mm 1 mps 623 mmHg 24%
    01:00 +16°C° 0 mm 1 mps 623 mmHg 25%
    02:00 +15°C° 0 mm 1 mps 623 mmHg 26%
    03:00 +14°C° 0 mm 2 mps 622 mmHg 27%
    04:00 +14°C° 0 mm 2 mps 622 mmHg 29%
    05:00 +14°C° 0 mm 2 mps 623 mmHg 30%
    06:00 +14°C° 0 mm 2 mps 623 mmHg 32%
    07:00 +14°C° 0 mm 2 mps 624 mmHg 34%
    08:00 +17°C° 0 mm 3 mps 624 mmHg 30%
    09:00 +20°C° 0 mm 3 mps 625 mmHg 25%
    10:00 +23°C° 0 mm 4 mps 626 mmHg 21%
    11:00 +26°C° 0 mm 3 mps 626 mmHg 20%
    12:00 +27°C° 0 mm 3 mps 626 mmHg 18%
    13:00 +29°C° 0 mm 3 mps 626 mmHg 16%
    14:00 +29°C° 0 mm 2 mps 625 mmHg 16%
    15:00 +29°C° 0 mm 2 mps 625 mmHg 16%
    16:00 +29°C° 0 mm 2 mps 624 mmHg 16%
    17:00 +26°C° 0 mm 1 mps 624 mmHg 19%
    18:00 +24°C° 0 mm 1 mps 624 mmHg 22%
    19:00 +21°C° 0 mm 1 mps 623 mmHg 25%
    20:00 +21°C° 0 mm 1 mps 624 mmHg 26%
    21:00 +20°C° 0 mm 1 mps 624 mmHg 27%
    22:00 +17°C° 0 mm 0 mps 624 mmHg 28%
    23:00 +18°C° 0 mm 1 mps 624 mmHg 29%

    28 July, Friday

    Time Temperature Precipitation Wind Pressure Humidity
    00:00 +18°C° 0 mm 1 mps 623 mmHg 30%
    01:00 +16°C° 0 mm 1 mps 623 mmHg 31%
    02:00 +15°C° 0 mm 2 mps 623 mmHg 32%
    03:00 +15°C° 0 mm 2 mps 623 mmHg 33%
    04:00 +14°C° 0 mm 2 mps 622 mmHg 33%
    05:00 +14°C° 0 mm 2 mps 623 mmHg 34%
    06:00 +14°C° 0 mm 2 mps 623 mmHg 35%
    07:00 +14°C° 0 mm 2 mps 624 mmHg 35%
    08:00 +17°C° 0 mm 2 mps 625 mmHg 30%
    09:00 +19°C° 0 mm 3 mps 625 mmHg 25%
    10:00 +22°C° 0 mm 3 mps 626 mmHg 21%
    11:00 +25°C° 0 mm 3 mps 626 mmHg 19%
    12:00 +27°C° 0 mm 3 mps 626 mmHg 18%
    13:00 +29°C° 0 mm 3 mps 626 mmHg 16%
    14:00 +29°C° 0 mm 2 mps 625 mmHg 16%
    15:00 +29°C° 0 mm 2 mps 625 mmHg 16%
    16:00 +29°C° 0 mm 2 mps 625 mmHg 16%
    17:00 +26°C° 0 mm 1 mps 624 mmHg 20%
    18:00 +23°C° 0 mm 1 mps 624 mmHg 23%
    19:00 +19°C° 0 mm 0 mps 624 mmHg 26%
    20:00 +18°C° 0 mm 0 mps 624 mmHg 27%
    21:00 +17°C° 0 mm 0 mps 624 mmHg 28%
    22:00 +17°C° 0 mm 0 mps 624 mmHg 29%
    23:00 +18°C° 0 mm 1 mps 624 mmHg 30%
    Show more